DB7GV-8 Weather Reports


Display with metric or nautical units.
time (UTC)temp
F
wind
direction
speed
MPH
gust
MPH
rain 1hr
in
rain 24hr
in
rain mn
in
humidity
%
barometer
mb
20260507152716 63 0 0.0 0.0 0.00 0.00 0.00 50 1015.4
20260507151211 64 0 0.0 0.0 0.00 0.00 0.00 49 1015.4
20260507145705 64 0 0.0 0.0 0.00 0.00 0.00 50 1015.4
20260507144200 63 0 0.0 0.0 0.00 0.00 0.00 50 1015.4
20260507142655 66 0 0.0 0.0 0.00 0.00 0.00 48 1015.5
20260507141148 65 0 0.0 0.0 0.00 0.00 0.00 50 1015.4
20260507135643 65 0 0.0 0.0 0.00 0.00 0.00 48 1015.4
20260507132633 64 0 0.0 0.0 0.00 0.00 0.00 52 1015.7
20260507131127 63 0 0.0 0.0 0.00 0.00 0.00 52 1015.7
20260507125622 64 0 0.0 0.0 0.00 0.00 0.00 49 1015.7
20260507124117 64 0 0.0 0.0 0.00 0.00 0.00 45 1015.8
20260507122611 63 0 0.0 0.0 0.00 0.00 0.00 46 1015.8
20260507121105 63 0 0.0 0.0 0.00 0.00 0.00 48 1015.7
20260507115600 62 0 0.0 0.0 0.00 0.00 0.00 52 1015.8
20260507114055 61 0 0.0 0.0 0.00 0.00 0.00 53 1015.9
20260507112549 61 0 0.0 0.0 0.00 0.00 0.00 54 1015.7
20260507111044 62 0 0.0 0.0 0.00 0.00 0.00 54 1015.9
20260507105539 62 0 0.0 0.0 0.00 0.00 0.00 56 1015.9
20260507104033 64 0 0.0 0.0 0.00 0.00 0.00 53 1015.8
20260507102528 64 0 0.0 0.0 0.00 0.00 0.00 57 1015.8
20260507101022 63 0 0.0 0.0 0.00 0.00 0.00 63 1015.8
20260507095517 61 0 0.0 0.0 0.00 0.00 0.00 68 1015.9
20260507092506 59 0 0.0 0.0 0.00 0.00 0.00 74 1015.8
20260507091000 59 0 0.0 0.0 0.00 0.00 0.00 76 1015.7
20260507085455 58 0 0.0 0.0 0.00 0.00 0.00 82 1015.6
20260507083950 55 0 0.0 0.0 0.00 0.00 0.00 85 1015.6
20260507082444 55 0 0.0 0.0 0.00 0.00 0.00 88 1015.5
20260507080939 54 0 0.0 0.0 0.00 0.00 0.00 90 1015.5
20260507075434 54 0 0.0 0.0 0.00 0.00 0.00 91 1015.4
20260507073928 52 0 0.0 0.0 0.00 0.00 0.00 92 1015.4
20260507072422 51 0 0.0 0.0 0.00 0.00 0.00 92 1015.4
20260507070917 52 0 0.0 0.0 0.00 0.00 0.00 93 1015.2
20260507065412 52 0 0.0 0.0 0.00 0.00 0.00 94 1015.1
20260507063906 51 0 0.0 0.0 0.00 0.00 0.00 95 1015.0
20260507062401 50 0 0.0 0.0 0.00 0.00 0.00 96 1015.0
20260507060856 50 0 0.0 0.0 0.00 0.00 0.00 96 1014.9
20260507055350 49 0 0.0 0.0 0.00 0.00 0.00 97 1014.8
20260507053845 49 0 0.0 0.0 0.00 0.00 0.00 97 1014.7
20260507052340 48 0 0.0 0.0 0.00 0.00 0.00 97 1014.5
20260507050834 48 0 0.0 0.0 0.00 0.00 0.00 97 1014.3
20260507045328 48 0 0.0 0.0 0.00 0.00 0.00 96 1014.1
20260507043823 47 0 0.0 0.0 0.00 0.00 0.00 96 1014.0
20260507042317 47 0 0.0 0.0 0.00 0.00 0.00 96 1013.9
20260507040812 47 0 0.0 0.0 0.00 0.00 0.00 95 1013.9
20260507035307 47 0 0.0 0.0 0.00 0.00 0.00 94 1013.8
20260507033802 47 0 0.0 0.0 0.00 0.00 0.00 93 1013.8
20260507032256 47 0 0.0 0.0 0.00 0.00 0.00 92 1013.7
20260507030751 46 0 0.0 0.0 0.00 0.00 0.00 91 1013.5
20260507025245 46 0 0.0 0.0 0.00 0.00 0.00 90 1013.5
20260507023740 46 0 0.0 0.0 0.00 0.00 0.00 90 1013.4
20260507022234 46 0 0.0 0.0 0.00 0.00 0.00 90 1013.5
20260507020729 45 0 0.0 0.0 0.00 0.00 0.00 89 1013.4
20260507015223 45 0 0.0 0.0 0.00 0.00 0.00 89 1013.2
20260507013718 45 0 0.0 0.0 0.00 0.00 0.00 89 1013.2
20260507012213 45 0 0.0 0.0 0.00 0.00 0.00 89 1013.1
20260507010707 45 0 0.0 0.0 0.00 0.00 0.00 89 1013.1
20260507005202 44 0 0.0 0.0 0.00 0.00 0.00 88 1013.1
20260507003657 45 0 0.0 0.0 0.00 0.00 0.00 88 1013.0
20260507002151 45 0 0.0 0.0 0.00 0.00 0.00 88 1012.9
20260507000645 45 0 0.0 0.0 0.00 0.00 0.00 88 1012.8
20260506235140 45 0 0.0 0.0 0.00 0.00 0.00 88 1012.8
20260506233635 46 0 0.0 0.0 0.00 0.00 0.00 88 1012.9
20260506232129 46 0 0.0 0.0 0.00 0.00 0.00 88 1012.8
20260506230624 46 0 0.0 0.0 0.00 0.00 0.00 89 1012.6
20260506225119 47 0 0.0 0.0 0.00 0.00 0.00 89 1012.7
20260506223613 47 0 0.0 0.0 0.00 0.00 0.00 89 1012.6
20260506222107 48 0 0.0 0.0 0.00 0.00 0.00 89 1012.6
20260506220602 48 0 0.0 0.0 0.00 0.00 0.00 89 1012.6
20260506215057 49 0 0.0 0.0 0.00 0.00 0.00 88 1012.6
20260506213552 50 0 0.0 0.0 0.00 0.00 0.00 87 1012.5
20260506212046 49 0 0.0 0.0 0.00 0.00 0.00 87 1012.8
20260506210541 49 0 0.0 0.0 0.00 0.00 0.00 87 1012.7
20260506205035 49 0 0.0 0.0 0.00 0.00 0.00 86 1012.5
20260506203530 49 0 0.0 0.0 0.00 0.00 0.00 86 1012.4
20260506202024 49 0 0.0 0.0 0.00 0.00 0.00 86 1012.2
20260506200519 50 0 0.0 0.0 0.00 0.00 0.00 86 1012.1
20260506195014 50 0 0.0 0.0 0.00 0.00 0.00 85 1011.9
20260506193509 51 0 0.0 0.0 0.00 0.00 0.00 84 1011.8
20260506192002 51 0 0.0 0.0 0.00 0.00 0.00 84 1011.8
20260506190458 51 0 0.0 0.0 0.00 0.00 0.00 83 1011.7
20260506184952 51 0 0.0 0.0 0.00 0.00 0.00 82 1011.5
20260506183447 51 0 0.0 0.0 0.00 0.00 0.00 81 1011.2
20260506181942 52 0 0.0 0.0 0.00 0.00 0.00 80 1011.1
20260506180435 52 0 0.0 0.0 0.00 0.00 0.00 79 1011.0
20260506174930 52 0 0.0 0.0 0.00 0.00 0.00 79 1010.9
20260506173425 53 0 0.0 0.0 0.00 0.00 0.00 78 1010.8
20260506171919 53 0 0.0 0.0 0.00 0.00 0.00 76 1010.7
20260506170414 53 0 0.0 0.0 0.00 0.00 0.00 74 1010.5
20260506164909 53 0 0.0 0.0 0.00 0.00 0.00 73 1010.3
20260506163403 53 0 0.0 0.0 0.00 0.00 0.00 72 1010.1
20260506161858 53 0 0.0 0.0 0.00 0.00 0.00 71 1010.3
20260506160353 54 0 0.0 0.0 0.00 0.00 0.00 71 1010.4
20260506153342 55 0 0.0 0.0 0.00 0.00 0.00 72 1010.4